カタログに戻る

SCOUT B DEB

運用中UNKNOWN
NORAD 29172·DEBRIS·🇺🇸 United States

打ち上げ Aug 10, 1965 から Wallops Flight Facility

Loading…

次のパス (今後24時間)

TLE

経年Source: Space-Track

元期: Aug 17, 2026, 07:53 UTC

1 29172U 65063W   26229.32878769  .00000282  00000-0  22397-2 0  9999
2 29172  69.2271 104.1724 0762480  98.9061  11.5640 11.80613490605077

AllMySatでSCOUT B DEBをリアルタイム追跡

Download on the App Store